Alexandria, Egypt

1:55 AM EET on November 22, 2017 (GMT +0200)
Alexandria

Weather History for HEAX - October, 2013

Change the Weather History Date:

Thursday, October 10, 2013

  Actual Average Record
Temperature  
Mean Temperature 75 °F -  
Max Temperature 82 °F 76 °F 96 °F (2011)
Min Temperature 68 °F 62 °F 60 °F (2004)
Cooling Degree Days 10    
Growing Degree Days 25 (Base 50)    
Moisture  
Dew Point 60 °F    
Average Humidity 60    
Maximum Humidity 83    
Minimum Humidity 32    
Precipitation  
Precipitation 0.00 in 0.02 in - ()
Sea Level Pressure  
Sea Level Pressure 30.07 in    
Wind  
Wind Speed 7 mph ()    
Max Wind Speed 14 mph    
Max Gust Speed -    
Visibility 6.0 miles    
Events      
Averages and records for this station are not official NWS values.
T = Trace of Precipitation, MM = Missing Value Source: Averaged Metar Reports

Daily Weather History Graph

Daily Weather History Graph

Search for Another Location

Airport or City:

Trip Planner

Search our weather history database for the weather conditions in past years. The results will help you decide how hot, cold, wet, or windy it might be!

Date:

Astronomy

Oct. 10, 2013 Rise Set
Actual Time 5:59 AM EET 5:34 PM EET
Civil Twilight 5:35 AM EET 5:58 PM EET
Nautical Twilight 5:07 AM EET 6:26 PM EET
Astronomical Twilight 4:39 AM EET 6:54 PM EET
Moon 11:18 AM EET (10/10) 10:04 PM EET (10/10)
Length of Visible Light 12h 23m
Length of Day
11h 34m
Waxing Crescent, 33% of the Moon is Illuminated
Oct 10
Waxing Crescent
Oct 12
First Quarter
Oct 19
Full
Oct 27
Last Quarter
Nov 3
New

Hourly Weather History & Observations

Time (EET) Temp. Heat Index Dew Point Humidity Pressure Visibility Wind Dir Wind Speed Gust Speed Precip Events Conditions
12:00 AM 71.6 °F - 60.8 °F 69% 30.06 in - NNE 6.9 mph - N/A   Clear
1:00 AM 71.6 °F - 60.8 °F 69% 30.06 in - NNE 4.6 mph - N/A   Clear
2:00 AM 72 °F - 61 °F 59% 30.06 in 6 mi NNE 6.9 mph - -  
2:00 AM 71.6 °F - 60.8 °F 69% 30.06 in - NNE 6.9 mph - N/A   Clear
3:00 AM 71.6 °F - 60.8 °F 69% 30.06 in - NNE 5.8 mph - N/A   Clear
4:00 AM 71.6 °F - 62.6 °F 73% 30.06 in - NNE 5.8 mph - N/A   Clear
5:00 AM 69.8 °F - 60.8 °F 73% 30.06 in - NNE 5.8 mph - N/A   Clear
6:00 AM 69.8 °F - 60.8 °F 73% 30.06 in - NE 3.5 mph - N/A   Clear
7:00 AM 71.6 °F - 59.0 °F 64% 30.06 in - NNE 6.9 mph - N/A   Clear
8:00 AM 75 °F - 60 °F 49% 30.10 in 6 mi NNE 11.5 mph - -  
8:00 AM 75.2 °F - 59.0 °F 57% 30.09 in - NNE 11.5 mph - N/A   Clear
9:00 AM 78.8 °F - 57.2 °F 47% 29.98 in - NNW 1.2 mph - N/A   Clear
10:00 AM 78.8 °F - 59.0 °F 51% 30.09 in - NNE 11.5 mph - N/A   Clear
11:00 AM 80.6 °F 81.1 °F 59.0 °F 48% 30.09 in - North 10.4 mph - N/A   Clear
12:00 PM 82.4 °F 82.5 °F 59.0 °F 45% 30.06 in - North 11.5 mph - N/A   Clear
1:00 PM 82.4 °F 81.7 °F 55.4 °F 39% 30.06 in - NNE 11.5 mph - N/A   Clear
2:00 PM 81 °F - 56 °F 32% 30.07 in 6 mi North 11.5 mph - -  
2:00 PM 80.6 °F 80.5 °F 55.4 °F 42% 30.06 in - North 11.5 mph - N/A   Clear
3:00 PM 78.8 °F - 59.0 °F 51% 30.06 in - North 12.7 mph - N/A   Clear
4:00 PM 78.8 °F - 59.0 °F 51% 30.06 in - North 13.8 mph - N/A   Clear
5:00 PM 75.2 °F - 60.8 °F 61% 30.06 in - North 13.8 mph - N/A   Clear
6:00 PM 73.4 °F - 60.8 °F 65% 30.06 in - North 11.5 mph - N/A   Clear
7:00 PM 71.6 °F - 60.8 °F 69% 30.09 in - North 9.2 mph - N/A   Clear
8:00 PM 71 °F - 60 °F 59% 30.10 in 6 mi North 8.1 mph - -  
8:00 PM 71.6 °F - 59.0 °F 64% 30.09 in - North 8.1 mph - N/A   Clear
9:00 PM 71.6 °F - 60.8 °F 69% 30.09 in - North 8.1 mph - N/A   Clear
10:00 PM 71.6 °F - 66.2 °F 83% 30.12 in - North 6.9 mph - N/A   Clear
11:00 PM 69.8 °F - 59.0 °F 68% 30.09 in - North 6.9 mph - N/A   Clear